Air Resources Laboratory banner image
Air Resources Laboratory web site National Oceanic and Atmospheric Administration (NOAA)

pa zone


SCZ050-WAZ558-NCZ071-TXZ119-213-PAZ071-DCZ001-FLZ074-172-MI076-
NYZ176-178-MAZ016-IL014-TNZ027-NJZ106-GAZ044-MD014-110600-

...Gateway Observations for Charleston International...

CITY           SKY/WX    TMP DP  RH WIND       PRES   REMARKS
Chas Airport   MOCLDY    79  72  79 W8        30.15R
Seattle        CLOUDY    65  55  70 S5        30.15R
Charlotte      PTCLDY    77  72  84 W6        30.13F
Dallas DFW     MOCLDY    77  74  90 NE3       30.04S
Dallas Love    MOCLDY    76  74  93 SE6       30.05S
Philladelphia  CLOUDY    81  74  79 W8        29.95F
Wash National  CLOUDY    73  71  93 S8        30.01F
Baltimore      MOCLDY    74  71  91 SW8       29.98F
Miami          PTCLDY    83  76  79 E10       30.12F HX  91
Detroit        PTCLDY    71  61  70 W7        30.08S
Newark         MOCLDY    77  69  76 S3        29.96F
Laguardia      MOCLDY    78  68  71 S5        29.95F
J F K          CLOUDY    75  73  93 S6        29.96F
Boston Logan   CLOUDY    67  64  90 SE5       30.00F
Ft. Lauderdale PTCLDY    84  76  76 E13       30.12S HX  93
Chicago O'Hare CLEAR     73  65  75 W7        30.11S
Chicago Midway CLEAR     76  64  66 W6        30.12R
Houston Bush   CLOUDY    74  74 100 E6        30.03F
Houston Hobby  CLOUDY    76  74  93 CALM      30.03R
Nashville      MOCLDY    74  69  85 S5        30.11S
Atlanta        MOCLDY    73  71  93 CALM      30.17R
London Heathrw   N/A     63  54  72 VRB2      30.18F


GAZ044-118-TXZ119-213-NCZ071-DCZ001-MDZ014-506-PAZ021-071-NJZ106-
NYZ176-178-MAZ106-OHZ011-021-055-MIZ076-KYZ091-ILZ014-INZ047-
MNZ060-ONZ431-110600-

...Gateway Observations for Savannah International...

CITY           SKY/WX    TMP DP  RH WIND       PRES   REMARKS
Savannah Arpt  CLOUDY    72  69  90 CALM      30.15F
Atlanta        MOCLDY    73  71  93 CALM      30.17R
Charlotte      PTCLDY    77  72  84 W6        30.13F
Dallas DFW     MOCLDY    77  74  90 NE3       30.04S
Houston Bush   CLOUDY    74  74 100 E6        30.03F
Wash National  CLOUDY    73  71  93 S8        30.01F
Wash Dulles    MOCLDY    72  70  93 SW7       30.01F
Baltimore      MOCLDY    74  71  91 SW8       29.98F
Philadelphia   CLOUDY    81  74  79 W8        29.95F
Newark         MOCLDY    77  69  76 S3        29.96F
Laguardia      MOCLDY    78  68  71 S5        29.95F
J F K          CLOUDY    75  73  93 S6        29.96F
Boston         CLOUDY    67  64  90 SE5       30.00F
Pittsburg      PTCLDY    66  63  90 W3        30.08S
Akron          CLEAR     63  58  83 CALM      30.09S
Cleveland      CLEAR     64  59  83 SW3       30.06S
Cincinnati     CLEAR     70  67  90 N7        30.10F
Columbus       CLEAR     67  66  97 CALM      30.09S
Detroit        PTCLDY    71  61  70 W7        30.08S
Chicago O'Hare CLEAR     73  65  75 W7        30.11S
Minneapolis    CLEAR     71  55  56 N7        30.20R
Indianapolis   CLEAR     67  61  81 NW6       30.13R
Toronto Canada MOCLDY    72  59  64 W8        29.99F


SCZ050-WAZ558-NCZ071-TXZ119-213-PAZ071-DCZ001-FLZ074-172-MI076-
NYZ176-178-MAZ016-IL014-TNZ027-NJZ106-GAZ044-MD014-110600-

...Gateway Observations for Charleston International...

CITY           SKY/WX    TMP DP  RH WIND       PRES   REMARKS
Chas Airport   MOCLDY    79  72  79 W8        30.15R
Seattle        CLOUDY    65  55  70 S5        30.15R
Charlotte      PTCLDY    77  72  84 W6        30.13F
Dallas DFW     MOCLDY    77  74  90 NE3       30.04S
Dallas Love    MOCLDY    76  74  93 SE6       30.05S
Philladelphia  CLOUDY    81  74  79 W8        29.95F
Wash National  CLOUDY    73  71  93 S8        30.01F
Baltimore      MOCLDY    74  71  91 SW8       29.98F
Miami          PTCLDY    83  76  79 E10       30.12F HX  91
Detroit        PTCLDY    71  61  70 W7        30.08S
Newark         MOCLDY    77  69  76 S3        29.96F
Laguardia      MOCLDY    78  68  71 S5        29.95F
J F K          CLOUDY    75  73  93 S6        29.96F
Boston Logan   CLOUDY    67  64  90 SE5       30.00F
Ft. Lauderdale PTCLDY    84  76  76 E13       30.12S HX  93
Chicago O'Hare CLEAR     73  65  75 W7        30.11S
Chicago Midway CLEAR     76  64  66 W6        30.12R
Houston Bush   CLOUDY    74  74 100 E6        30.03F
Houston Hobby  CLOUDY    76  74  93 CALM      30.03R
Nashville      MOCLDY    74  69  85 S5        30.11S
Atlanta        MOCLDY    73  71  93 CALM      30.17R
London Heathrw   N/A     63  54  72 VRB2      30.18F


GAZ044-118-TXZ119-213-NCZ071-DCZ001-MDZ014-506-PAZ021-071-NJZ106-
NYZ176-178-MAZ106-OHZ011-021-055-MIZ076-KYZ091-ILZ014-INZ047-
MNZ060-ONZ431-110600-

...Gateway Observations for Savannah International...

CITY           SKY/WX    TMP DP  RH WIND       PRES   REMARKS
Savannah Arpt  CLOUDY    72  69  90 CALM      30.15F
Atlanta        MOCLDY    73  71  93 CALM      30.17R
Charlotte      PTCLDY    77  72  84 W6        30.13F
Dallas DFW     MOCLDY    77  74  90 NE3       30.04S
Houston Bush   CLOUDY    74  74 100 E6        30.03F
Wash National  CLOUDY    73  71  93 S8        30.01F
Wash Dulles    MOCLDY    72  70  93 SW7       30.01F
Baltimore      MOCLDY    74  71  91 SW8       29.98F
Philadelphia   CLOUDY    81  74  79 W8        29.95F
Newark         MOCLDY    77  69  76 S3        29.96F
Laguardia      MOCLDY    78  68  71 S5        29.95F
J F K          CLOUDY    75  73  93 S6        29.96F
Boston         CLOUDY    67  64  90 SE5       30.00F
Pittsburg      PTCLDY    66  63  90 W3        30.08S
Akron          CLEAR     63  58  83 CALM      30.09S
Cleveland      CLEAR     64  59  83 SW3       30.06S
Cincinnati     CLEAR     70  67  90 N7        30.10F
Columbus       CLEAR     67  66  97 CALM      30.09S
Detroit        PTCLDY    71  61  70 W7        30.08S
Chicago O'Hare CLEAR     73  65  75 W7        30.11S
Minneapolis    CLEAR     71  55  56 N7        30.20R
Indianapolis   CLEAR     67  61  81 NW6       30.13R
Toronto Canada MOCLDY    72  59  64 W8        29.99F


PAZ065-110800-
York-
Including the city of York
115 AM EDT Thu Aug 11 2022

.REST OF TONIGHT...Mostly cloudy with a chance of showers with a
slight chance of thunderstorms. Patchy fog. Some thunderstorms
may produce heavy rainfall. Lows in the upper 60s. West winds
around 5 mph. Chance of rain 40 percent.
.THURSDAY...Patchy fog in the morning. Partly sunny with a slight
chance of thunderstorms in the morning, then sunny in the
afternoon. Some thunderstorms may produce heavy rainfall in the
morning. Highs in the mid 80s. Northwest winds around 5 mph.
Chance of precipitation 20 percent.
.THURSDAY NIGHT...Partly cloudy. Lows in the lower 60s. Northwest
winds around 5 mph.
.FRIDAY...Sunny. Highs in the upper 70s. North winds 5 to 10 mph
with gusts up to 20 mph.
.FRIDAY NIGHT...Mostly clear. Lows in the mid 50s. North winds
5 to 10 mph.
.SATURDAY...Sunny. Highs in the upper 70s.
.SATURDAY NIGHT...Mostly clear in the evening, then becoming
partly cloudy. Lows in the upper 50s.
.SUNDAY...Mostly sunny. Highs in the upper 70s.
.SUNDAY NIGHT...Mostly cloudy with a 40 percent chance of
showers. Lows in the lower 60s.
.MONDAY...Mostly cloudy with a chance of showers in the morning,
then partly sunny with showers likely in the afternoon. Highs in
the mid 70s. Chance of rain 60 percent.
.MONDAY NIGHT...Mostly cloudy. Showers likely, mainly in the
evening. Lows in the lower 60s. Chance of rain 60 percent.
.TUESDAY...Partly sunny with a chance of showers. A chance of
thunderstorms in the afternoon. Highs in the mid 70s. Chance of
rain 50 percent.
.TUESDAY NIGHT...A chance of thunderstorms in the evening. Mostly
cloudy with a chance of showers. Lows in the lower 60s. Chance of
rain 50 percent.
.WEDNESDAY...Partly sunny with a chance of showers. Highs in the
mid 70s. Chance of rain 50 percent.


PAZ027-110800-
Mifflin-
Including the city of Lewistown
115 AM EDT Thu Aug 11 2022

.REST OF TONIGHT...Partly cloudy. Lows in the lower 60s. West
winds around 5 mph.
.THURSDAY...Mostly sunny. Highs in the lower 80s. West winds 5 to
10 mph.
.THURSDAY NIGHT...Partly cloudy with scattered showers in the
evening, then mostly clear after midnight. Lows in the mid 50s.
Northwest winds 5 to 10 mph. Chance of rain 30 percent.
.FRIDAY...Sunny. Highs in the upper 70s. North winds 5 to 10 mph.
.FRIDAY NIGHT...Mostly clear. Lows in the lower 50s. North winds
5 to 10 mph.
.SATURDAY...Sunny. Highs in the upper 70s.
.SATURDAY NIGHT...Mostly clear in the evening, then becoming
partly cloudy. Lows in the mid 50s.
.SUNDAY...Partly sunny. A chance of showers in the afternoon.
Highs in the mid 70s. Chance of rain 30 percent.
.SUNDAY NIGHT...Mostly cloudy with a 40 percent chance of
showers. Lows in the upper 50s.
.MONDAY...Partly sunny with a chance of showers. Highs in the
lower 70s. Chance of rain 50 percent.
.MONDAY NIGHT...Mostly cloudy with a chance of showers. Lows in
the upper 50s. Chance of rain 50 percent.
.TUESDAY...Partly sunny with a chance of showers. A chance of
thunderstorms in the afternoon. Highs in the lower 70s. Chance of
rain 50 percent.
.TUESDAY NIGHT...A chance of thunderstorms in the evening. Mostly
cloudy with a chance of showers. Lows in the upper 50s. Chance of
rain 50 percent.
.WEDNESDAY...Partly sunny with a chance of showers. Highs in the
lower 70s. Chance of rain 50 percent.


PAZ051-110800-
Montour-
Including the city of Danville
115 AM EDT Thu Aug 11 2022

.REST OF TONIGHT...Partly cloudy. Lows in the lower 60s. Light
and variable winds.
.THURSDAY...Mostly sunny. A slight chance of thunderstorms with
isolated showers in the afternoon. Highs in the mid 80s.
Northwest winds around 5 mph. Chance of rain 20 percent.
.THURSDAY NIGHT...Partly cloudy with scattered showers in the
evening, then mostly clear after midnight. Lows in the mid 50s.
North winds around 5 mph. Chance of rain 30 percent.
.FRIDAY...Sunny. Highs around 80. North winds 5 to 10 mph with
gusts up to 20 mph.
.FRIDAY NIGHT...Clear. Lows in the lower 50s. North winds 5 to
10 mph.
.SATURDAY...Sunny. Highs around 80.
.SATURDAY NIGHT...Mostly clear in the evening, then becoming
partly cloudy. Lows in the mid 50s.
.SUNDAY...Partly sunny. Highs around 80.
.SUNDAY NIGHT...Mostly cloudy with a 40 percent chance of
showers. Lows around 60.
.MONDAY...Partly sunny in the morning, then becoming mostly
cloudy. A chance of showers. Highs in the mid 70s. Chance of rain
50 percent.
.MONDAY NIGHT...Mostly cloudy with a chance of showers. Lows
around 60. Chance of rain 50 percent.
.TUESDAY...Partly sunny with a chance of showers. A chance of
thunderstorms in the afternoon. Highs in the mid 70s. Chance of
rain 50 percent.
.TUESDAY NIGHT...A chance of thunderstorms in the evening. Mostly
cloudy with a chance of showers. Lows in the upper 50s. Chance of
rain 50 percent.
.WEDNESDAY...Partly sunny with a chance of showers. Highs in the
mid 70s. Chance of rain 50 percent.


PAZ018-110800-
Northern Centre-
Including the city of Philipsburg
115 AM EDT Thu Aug 11 2022

.REST OF TONIGHT...Partly cloudy. Lows in the upper 50s.
Northwest winds around 5 mph.
.THURSDAY...Mostly sunny. Scattered showers with a slight chance
of thunderstorms in the afternoon. Highs in the upper 70s. West
winds 5 to 10 mph. Chance of rain 30 percent.
.THURSDAY NIGHT...Partly cloudy with scattered showers in the
evening, then mostly clear after midnight. Lows in the lower 50s.
Northwest winds 5 to 10 mph. Chance of rain 30 percent.
.FRIDAY...Sunny. Highs in the mid 70s. North winds 5 to 10 mph.
.FRIDAY NIGHT...Mostly clear. Lows in the upper 40s. North winds
5 to 10 mph.
.SATURDAY...Sunny. Highs in the upper 70s.
.SATURDAY NIGHT...Partly cloudy. Lows in the mid 50s.
.SUNDAY...Partly sunny in the morning, then mostly cloudy with a
chance of showers in the afternoon. Highs in the mid 70s. Chance
of rain 40 percent.
.SUNDAY NIGHT...Mostly cloudy with a 40 percent chance of
showers. Lows in the upper 50s.
.MONDAY...Mostly cloudy in the morning, then becoming partly
sunny. A chance of showers. Highs around 70. Chance of rain
50 percent.
.MONDAY NIGHT...Mostly cloudy with a chance of showers. Lows in
the upper 50s. Chance of rain 50 percent.
.TUESDAY...Mostly cloudy in the morning, then becoming partly
sunny. A chance of showers. A chance of thunderstorms in the
afternoon. Highs in the lower 70s. Chance of rain 50 percent.
.TUESDAY NIGHT...Mostly cloudy. A chance of showers and
thunderstorms in the evening. Lows in the mid 50s. Chance of rain
50 percent.
.WEDNESDAY...Partly sunny with a chance of showers. Highs in the
lower 70s. Chance of rain 50 percent.


PAZ012-110800-
Northern Clinton-
Including the city of Renovo
115 AM EDT Thu Aug 11 2022

.REST OF TONIGHT...Partly cloudy. Patchy fog. Lows in the upper
50s. Northwest winds around 5 mph.
.THURSDAY...Mostly sunny. Patchy fog in the morning. Scattered
showers with a slight chance of thunderstorms in the afternoon.
Highs around 80. West winds 5 to 10 mph. Chance of rain
30 percent.
.THURSDAY NIGHT...Partly cloudy in the evening, then becoming
mostly clear. Lows in the lower 50s. North winds 5 to 10 mph.
.FRIDAY...Sunny. Highs in the upper 70s. North winds 5 to 10 mph.
.FRIDAY NIGHT...Clear. Lows in the upper 40s. North winds 5 to
10 mph.
.SATURDAY...Sunny. Highs in the upper 70s.
.SATURDAY NIGHT...Partly cloudy. Lows in the mid 50s.
.SUNDAY...Partly sunny in the morning, then mostly cloudy with a
chance of showers in the afternoon. Highs in the mid 70s. Chance
of rain 30 percent.
.SUNDAY NIGHT...Mostly cloudy with a 40 percent chance of
showers. Lows in the upper 50s.
.MONDAY...Mostly cloudy in the morning, then becoming partly
sunny. A chance of showers. Highs in the lower 70s. Chance of
rain 50 percent.
.MONDAY NIGHT...Mostly cloudy with a chance of showers. Lows in
the upper 50s. Chance of rain 50 percent.
.TUESDAY...Partly sunny with a chance of showers. A chance of
thunderstorms in the afternoon. Highs in the lower 70s. Chance of
rain 50 percent.
.TUESDAY NIGHT...A chance of thunderstorms in the evening. Mostly
cloudy with a chance of showers. Lows in the upper 50s. Chance of
rain 50 percent.
.WEDNESDAY...Partly sunny with a chance of showers. A chance of
thunderstorms in the afternoon. Highs in the lower 70s. Chance of
rain 50 percent.


PAZ041-110800-
Northern Lycoming-
Including the city of Trout Run
115 AM EDT Thu Aug 11 2022

.REST OF TONIGHT...Partly cloudy. Patchy fog. Lows in the upper
50s. North winds around 5 mph.
.THURSDAY...Mostly sunny. Scattered showers with a slight chance
of thunderstorms in the afternoon. Highs around 80. Northwest
winds 5 to 10 mph. Chance of rain 30 percent.
.THURSDAY NIGHT...Partly cloudy with scattered showers in the
evening, then mostly clear after midnight. Lows in the lower 50s.
North winds 5 to 10 mph. Chance of rain 30 percent.
.FRIDAY...Sunny. Highs in the mid 70s. North winds 5 to 10 mph
with gusts up to 20 mph.
.FRIDAY NIGHT...Clear. Lows in the upper 40s. North winds 5 to
10 mph.
.SATURDAY...Sunny. Highs in the upper 70s.
.SATURDAY NIGHT...Mostly clear in the evening, then becoming
partly cloudy. Lows in the lower 50s.
.SUNDAY...Partly sunny. Highs in the mid 70s.
.SUNDAY NIGHT...Mostly cloudy with a 40 percent chance of
showers. Lows in the upper 50s.
.MONDAY...Mostly cloudy with a chance of showers. Highs in the
lower 70s. Chance of rain 50 percent.
.MONDAY NIGHT...Mostly cloudy with a chance of showers. Lows in
the upper 50s. Chance of rain 50 percent.
.TUESDAY...Partly sunny with a chance of showers. A chance of
thunderstorms in the afternoon. Highs in the lower 70s. Chance of
rain 50 percent.
.TUESDAY NIGHT...A chance of thunderstorms in the evening. Mostly
cloudy with a chance of showers. Lows in the upper 50s. Chance of
rain 50 percent.
.WEDNESDAY...Partly sunny with a chance of showers. Highs in the
lower 70s. Chance of rain 50 percent.


PAZ052-110800-
Northumberland-
Including the cities of Sunbury and Shamokin
115 AM EDT Thu Aug 11 2022

.REST OF TONIGHT...Mostly cloudy. Lows in the lower 60s. Light
and variable winds.
.THURSDAY...Mostly sunny. Highs in the mid 80s. Northwest winds
5 to 10 mph.
.THURSDAY NIGHT...Partly cloudy with scattered showers in the
evening, then mostly clear after midnight. Lows in the mid 50s.
North winds 5 to 10 mph. Chance of rain 30 percent.
.FRIDAY...Sunny. Highs in the upper 70s. North winds 5 to 10 mph
with gusts up to 20 mph.
.FRIDAY NIGHT...Mostly clear. Lows in the lower 50s. North winds
5 to 10 mph.
.SATURDAY...Sunny. Highs around 80.
.SATURDAY NIGHT...Mostly clear in the evening, then becoming
partly cloudy. Lows in the mid 50s.
.SUNDAY...Partly sunny. Highs in the upper 70s.
.SUNDAY NIGHT...Mostly cloudy with a 40 percent chance of
showers. Lows around 60.
.MONDAY...Partly sunny in the morning, then becoming mostly
cloudy. A chance of showers. Highs in the mid 70s. Chance of rain
50 percent.
.MONDAY NIGHT...Mostly cloudy with a chance of showers. Lows
around 60. Chance of rain 50 percent.
.TUESDAY...Partly sunny with a chance of showers. A chance of
thunderstorms in the afternoon. Highs in the mid 70s. Chance of
rain 50 percent.
.TUESDAY NIGHT...A chance of thunderstorms in the evening. Mostly
cloudy with a chance of showers. Lows in the upper 50s. Chance of
rain 50 percent.
.WEDNESDAY...Partly sunny with a chance of showers. Highs in the
mid 70s. Chance of rain 50 percent.


PAZ056-110800-
Perry-
Including the city of Newport
115 AM EDT Thu Aug 11 2022

.REST OF TONIGHT...Mostly cloudy with a 20 percent chance of
showers. Lows in the mid 60s. Northwest winds around 5 mph.
.THURSDAY...Mostly sunny. Highs in the mid 80s. Northwest winds
5 to 10 mph.
.THURSDAY NIGHT...Mostly cloudy in the evening, then clearing.
Lows in the upper 50s. Northwest winds 5 to 10 mph.
.FRIDAY...Sunny. Highs in the upper 70s. North winds 5 to 10 mph
with gusts up to 20 mph.
.FRIDAY NIGHT...Mostly clear. Lows in the lower 50s. North winds
5 to 10 mph.
.SATURDAY...Sunny. Highs around 80.
.SATURDAY NIGHT...Mostly clear in the evening, then becoming
partly cloudy. Lows in the mid 50s.
.SUNDAY...Partly sunny. Highs in the upper 70s.
.SUNDAY NIGHT...Mostly cloudy with a 40 percent chance of
showers. Lows around 60.
.MONDAY...Mostly cloudy in the morning, then becoming partly
sunny. A chance of showers. Highs in the mid 70s. Chance of rain
50 percent.
.MONDAY NIGHT...Mostly cloudy with a chance of showers. Lows in
the lower 60s. Chance of rain 50 percent.
.TUESDAY...Partly sunny with a chance of showers. A chance of
thunderstorms in the afternoon. Highs in the mid 70s. Chance of
rain 50 percent.
.TUESDAY NIGHT...A chance of thunderstorms in the evening. Mostly
cloudy with a chance of showers. Lows in the upper 50s. Chance of
rain 50 percent.
.WEDNESDAY...Partly sunny with a chance of showers. Highs in the
mid 70s. Chance of rain 50 percent.


PAZ006-110800-
Potter-
Including the city of Coudersport
115 AM EDT Thu Aug 11 2022

.REST OF TONIGHT...Partly cloudy. Patchy fog. Lows in the mid
50s. Northwest winds around 5 mph.
.THURSDAY...Mostly sunny. Isolated showers in the morning, then
scattered showers with a slight chance of thunderstorms in the
afternoon. Highs in the mid 70s. Northwest winds 5 to 10 mph.
Chance of rain 30 percent.
.THURSDAY NIGHT...Mostly clear. Lows in the upper 40s. North
winds 5 to 10 mph.
.FRIDAY...Sunny. Highs in the lower 70s. North winds 5 to 10 mph
with gusts up to 20 mph.
.FRIDAY NIGHT...Clear. Lows in the upper 40s. North winds 5 to
10 mph.
.SATURDAY...Sunny. Highs in the mid 70s.
.SATURDAY NIGHT...Partly cloudy. Lows in the lower 50s.
.SUNDAY...Mostly sunny in the morning, then mostly cloudy with a
chance of showers in the afternoon. Highs in the lower 70s.
Chance of rain 30 percent.
.SUNDAY NIGHT...Mostly cloudy with a 40 percent chance of
showers. Lows in the mid 50s.
.MONDAY...Mostly cloudy with a chance of showers. Highs around
70. Chance of rain 50 percent.
.MONDAY NIGHT...Mostly cloudy with a chance of showers. Lows in
the mid 50s. Chance of rain 50 percent.
.TUESDAY...Partly sunny with a chance of showers. A chance of
thunderstorms in the afternoon. Highs around 70. Chance of rain
50 percent.
.TUESDAY NIGHT...A chance of thunderstorms in the evening. Mostly
cloudy with a chance of showers. Lows in the mid 50s. Chance of
rain 50 percent.
.WEDNESDAY...Partly sunny with a chance of showers. A chance of
thunderstorms in the afternoon. Highs around 70. Chance of rain
50 percent.


PAZ058-110800-
Schuylkill-
Including the city of Pottsville
115 AM EDT Thu Aug 11 2022

.REST OF TONIGHT...Mostly cloudy with a 20 percent chance of
showers. Lows in the mid 60s. Light and variable winds.
.THURSDAY...Mostly sunny. Highs in the mid 80s. Northwest winds
around 5 mph.
.THURSDAY NIGHT...Partly cloudy. Lows in the upper 50s. North
winds 5 to 10 mph.
.FRIDAY...Sunny. Highs in the upper 70s. North winds 5 to 10 mph
with gusts up to 20 mph.
.FRIDAY NIGHT...Mostly clear. Lows in the lower 50s. North winds
around 5 mph. Gusts up to 20 mph in the evening.
.SATURDAY...Sunny. Highs in the upper 70s.
.SATURDAY NIGHT...Mostly clear. Lows in the mid 50s.
.SUNDAY...Mostly sunny. Highs in the upper 70s.
.SUNDAY NIGHT...Mostly cloudy with a 40 percent chance of
showers. Lows in the upper 50s.
.MONDAY...Partly sunny with a chance of showers in the morning,
then mostly cloudy with showers likely in the afternoon. Highs in
the lower 70s. Chance of rain 60 percent.
.MONDAY N

123
FPUS61 KBTV 110525
SFTVT
VTZ001>018-112200-

Tabular State Forecast for VERMONT
National Weather Service Burlington VT
123 AM EDT Thu Aug 11 2022

ROWS INCLUDE...
   Daily predominant daytime weather 6AM-6PM
   Forecast temperatures...early morning low/daytime high
         Probability of precipitation nighttime 6PM-6AM/daytime 6AM-6PM
          - indicates temperatures below zero
         MM indicates missing data


   FCST     FCST     FCST     FCST     FCST     FCST     FCST
   Today    Fri      Sat      Sun      Mon      Tue      Wed
   Aug 11   Aug 12   Aug 13   Aug 14   Aug 15   Aug 16   Aug 17


...Champlain Valley...
   Burlington, VT
   Shwrs    Ptcldy   Ptcldy   Ptcldy   Ptcldy   Ptcldy   Ptcldy
     /81    57/73    54/76    55/78    58/77    58/78    60/76
      /50    30/00    00/00    10/10    10/30    30/40    40/40


...North Central Vermont...
   Morrisville, VT
   Shwrs    Ptcldy   Ptcldy   Ptcldy   Ptcldy   Ptcldy   Ptcldy
     /79    53/72    49/73    50/75    53/76    53/75    56/74
      /50    20/00    00/00    10/10    10/30    30/40    40/40

   Montpelier, VT
   Shwrs    Ptcldy   Ptcldy   Ptcldy   Ptcldy   Shwrs    Ptcldy
     /77    55/72    49/74    51/76    54/75    55/76    58/74
      /50    30/00    00/10    10/10    10/30    30/50    50/40


...Northeast Vermont...
   St. Johnsbury, VT
   Shwrs    Ptcldy   Ptcldy   Ptcldy   Ptcldy   Shwrs    Shwrs
     /77    54/73    49/74    50/75    53/75    54/75    57/73
      /50    30/00    00/10    10/10    10/20    30/50    50/50


...Southern Vermont...
   Rutland, VT
   Ptcldy   Ptcldy   Sunny    Ptcldy   Ptcldy   Shwrs    Ptcldy
     /78    57/74    50/74    51/75    55/76    56/76    58/74
      /40    30/00    00/10    10/10    10/30    30/50    50/40

   Sprinfield, VT
   Foggy    Ptcldy   Sunny    Ptcldy   Ptcldy   Shwrs    Shwrs
     /83    58/79    51/76    52/78    54/78    56/76    58/75
      /20    20/00    00/10    10/10    10/30    30/50    50/50

   Bennington, VT
   Ptcldy   Sunny    Sunny    Ptcldy   Ptcldy   Shwrs    Ptcldy
     /82    54/77    49/76    51/79    54/79    56/79    58/77
      /30    30/00    00/10    10/10    10/40    40/50    50/40

   Brattleboro, VT
   Ptcldy   Sunny    Ptcldy   Ptcldy   Ptcldy   Shwrs    Shwrs
     /84    58/79    53/79    54/80    56/80    59/78    59/76
      /10    30/10    10/10    10/10    10/40    40/50    50/50



SCZ050-WAZ558-NCZ071-TXZ119-213-PAZ071-DCZ001-FLZ074-172-MI076-
NYZ176-178-MAZ016-IL014-TNZ027-NJZ106-GAZ044-MD014-110600-

...Gateway Observations for Charleston International...

CITY           SKY/WX    TMP DP  RH WIND       PRES   REMARKS
Chas Airport   MOCLDY    79  72  79 W8        30.15R
Seattle        CLOUDY    65  55  70 S5        30.15R
Charlotte      PTCLDY    77  72  84 W6        30.13F
Dallas DFW     MOCLDY    77  74  90 NE3       30.04S
Dallas Love    MOCLDY    76  74  93 SE6       30.05S
Philladelphia  CLOUDY    81  74  79 W8        29.95F
Wash National  CLOUDY    73  71  93 S8        30.01F
Baltimore      MOCLDY    74  71  91 SW8       29.98F
Miami          PTCLDY    83  76  79 E10       30.12F HX  91
Detroit        PTCLDY    71  61  70 W7        30.08S
Newark         MOCLDY    77  69  76 S3        29.96F
Laguardia      MOCLDY    78  68  71 S5        29.95F
J F K          CLOUDY    75  73  93 S6        29.96F
Boston Logan   CLOUDY    67  64  90 SE5       30.00F
Ft. Lauderdale PTCLDY    84  76  76 E13       30.12S HX  93
Chicago O'Hare CLEAR     73  65  75 W7        30.11S
Chicago Midway CLEAR     76  64  66 W6        30.12R
Houston Bush   CLOUDY    74  74 100 E6        30.03F
Houston Hobby  CLOUDY    76  74  93 CALM      30.03R
Nashville      MOCLDY    74  69  85 S5        30.11S
Atlanta        MOCLDY    73  71  93 CALM      30.17R
London Heathrw   N/A     63  55  77 VRB2      30.18S


GAZ044-118-TXZ119-213-NCZ071-DCZ001-MDZ014-506-PAZ021-071-NJZ106-
NYZ176-178-MAZ106-OHZ011-021-055-MIZ076-KYZ091-ILZ014-INZ047-
MNZ060-ONZ431-110600-

...Gateway Observations for Savannah International...

CITY           SKY/WX    TMP DP  RH WIND       PRES   REMARKS
Savannah Arpt  CLOUDY    72  69  90 CALM      30.15F
Atlanta        MOCLDY    73  71  93 CALM      30.17R
Charlotte      PTCLDY    77  72  84 W6        30.13F
Dallas DFW     MOCLDY    77  74  90 NE3       30.04S
Houston Bush   CLOUDY    74  74 100 E6        30.03F
Wash National  CLOUDY    73  71  93 S8        30.01F
Wash Dulles    MOCLDY    72  70  93 SW7       30.01F
Baltimore      MOCLDY    74  71  91 SW8       29.98F
Philadelphia   CLOUDY    81  74  79 W8        29.95F
Newark         MOCLDY    77  69  76 S3        29.96F
Laguardia      MOCLDY    78  68  71 S5        29.95F
J F K          CLOUDY    75  73  93 S6        29.96F
Boston         CLOUDY    67  64  90 SE5       30.00F
Pittsburg      PTCLDY    66  63  90 W3        30.08S
Akron          CLEAR     63  58  83 CALM      30.09S
Cleveland      CLEAR     64  59  83 SW3       30.06S
Cincinnati     CLEAR     70  67  90 N7        30.10F
Columbus       CLEAR     67  66  97 CALM      30.09S
Detroit        PTCLDY    71  61  70 W7        30.08S
Chicago O'Hare CLEAR     73  65  75 W7        30.11S
Minneapolis    CLEAR     71  55  56 N7        30.20R
Indianapolis   CLEAR     67  61  81 NW6       30.13R
Toronto Canada MOCLDY    72  59  64 W8        29.99F